GW4613 Weather Reports


Display with metric or nautical units.
time (UTC)temp
F
wind
direction
speed
MPH
gust
MPH
rain 1hr
in
rain 24hr
in
rain mn
in
humidity
%
barometer
mb
20260503174817 56 227 2.0 14.0 0.00 0.00 0.00 40 1017.4
20260503174316 56 201 4.0 10.0 0.00 0.00 0.00 37 1017.5
20260503173811 57 305 6.0 8.0 0.00 0.00 0.00 34 1017.5
20260503173307 56 55 8.0 16.0 0.00 0.00 0.00 37 1017.4
20260503172804 56 311 5.0 9.0 0.00 0.00 0.00 35 1017.6
20260503172301 56 301 3.0 8.0 0.00 0.00 0.00 37 1017.8
20260503171757 56 229 6.0 7.0 0.00 0.00 0.00 33 1017.8
20260503171255 55 249 5.0 7.0 0.00 0.00 0.00 35 1017.9
20260503170752 56 309 5.0 13.0 0.00 0.00 0.00 37 1018.0
20260503170249 56 295 4.0 11.0 0.00 0.00 0.00 39 1017.8
20260503160211 53 297 9.0 11.0 0.00 0.00 0.00 40 1018.6
20260503150641 49 314 2.0 8.0 0.00 0.00 0.00 45 1019.2
20260503150137 49 249 4.0 10.0 0.00 0.00 0.00 48 1019.1
20260503131030 49 322 2.0 4.0 0.00 0.00 0.00 52 1019.0
20260503130528 47 130 1.0 3.0 0.00 0.00 0.00 54 1019.1
20260503110418 37 126 0.0 1.0 0.00 0.00 0.00 78 1018.1
20260503090320 40 268 1.0 1.0 0.00 0.00 0.00 69 1017.2
20260503081248 41 257 1.0 4.0 0.00 0.00 0.00 68 1017.1
20260503080743 41 85 2.0 3.0 0.00 0.00 0.00 68 1017.0
20260503080242 41 265 0.0 0.0 0.00 0.00 0.00 69 1016.8
20260503072718 41 292 1.0 2.0 0.00 0.00 0.00 69 1016.7
20260503072214 41 353 2.0 2.0 0.00 0.00 0.00 67 1016.5
20260503071711 41 287 2.0 2.0 0.00 0.00 0.00 68 1016.4
20260503071208 41 296 2.0 3.0 0.00 0.00 0.00 71 1016.5
20260503070704 41 244 0.0 1.0 0.00 0.00 0.00 68 1016.3
20260503070203 41 43 1.0 3.0 0.00 0.00 0.00 68 1016.4
20260503060127 40 258 0.0 2.0 0.00 0.00 0.00 73 1016.2
20260503055119 40 282 0.0 1.0 0.00 0.00 0.00 71 1016.3
20260503054614 41 282 2.0 3.0 0.00 0.00 0.00 70 1016.3
20260503054111 41 276 2.0 3.0 0.00 0.00 0.00 70 1016.0
20260503053609 41 210 0.0 1.0 0.00 0.00 0.00 67 1016.1
20260503053108 42 244 2.0 3.0 0.00 0.00 0.00 66 1016.3
20260503052604 42 261 1.0 3.0 0.00 0.00 0.00 65 1016.2
20260503052100 42 270 1.0 1.0 0.00 0.00 0.00 67 1016.5
20260503051555 42 7 2.0 3.0 0.00 0.00 0.00 64 1016.2
20260503051054 42 291 0.0 1.0 0.00 0.00 0.00 64 1016.3
20260503050549 42 345 0.0 0.0 0.00 0.00 0.00 66 1016.4
20260503050047 43 291 0.0 1.0 0.00 0.00 0.00 65 1016.5
20260503045543 42 7 1.0 3.0 0.00 0.00 0.00 63 1016.6
20260503045041 43 312 0.0 2.0 0.00 0.00 0.00 65 1016.5
20260503044538 42 315 2.0 4.0 0.00 0.00 0.00 64 1016.7
20260503044035 42 316 1.0 1.0 0.00 0.00 0.00 65 1016.6
20260503043531 42 6 1.0 2.0 0.00 0.00 0.00 65 1016.4
20260503043028 42 298 1.0 1.0 0.00 0.00 0.00 65 1016.6
20260503042525 43 297 1.0 1.0 0.00 0.00 0.00 63 1016.5
20260503042021 44 41 0.0 4.0 0.00 0.00 0.00 62 1016.5
20260503041518 44 35 2.0 3.0 0.00 0.00 0.00 61 1016.5
20260503041016 44 341 1.0 6.0 0.00 0.00 0.00 61 1016.5
20260503040513 44 81 0.0 1.0 0.00 0.00 0.00 62 1016.4
20260503040010 44 1 2.0 2.0 0.00 0.00 0.00 61 1016.4
20260503035507 44 49 1.0 2.0 0.00 0.00 0.00 61 1016.3
20260503035005 44 22 2.0 4.0 0.00 0.00 0.00 60 1016.4
20260503034501 44 268 0.0 1.0 0.00 0.00 0.00 61 1016.5
20260503033958 45 83 3.0 7.0 0.00 0.00 0.00 59 1016.6
20260503033456 44 6 6.0 8.0 0.00 0.00 0.00 60 1016.5
20260503032954 44 283 1.0 6.0 0.00 0.00 0.00 61 1016.3
20260503032452 44 352 2.0 2.0 0.00 0.00 0.00 61 1016.2
20260503031949 44 14 3.0 6.0 0.00 0.00 0.00 61 1016.4
20260503031447 45 340 2.0 2.0 0.00 0.00 0.00 60 1016.0
20260503030943 45 45 1.0 4.0 0.00 0.00 0.00 59 1016.1
20260503030440 45 60 3.0 3.0 0.00 0.00 0.00 59 1016.2
20260503025937 45 336 2.0 7.0 0.00 0.00 0.00 58 1016.2
20260503025434 45 347 5.0 7.0 0.00 0.00 0.00 59 1016.4
20260503024932 45 19 3.0 7.0 0.00 0.00 0.00 59 1016.2
20260503024428 45 27 0.0 3.0 0.00 0.00 0.00 59 1016.0
20260503023925 46 353 5.0 7.0 0.00 0.00 0.00 58 1016.2
20260503023422 46 23 1.0 4.0 0.00 0.00 0.00 59 1016.3
20260503022919 46 56 4.0 7.0 0.00 0.00 0.00 58 1016.3
20260503022419 46 22 4.0 7.0 0.00 0.00 0.00 59 1016.3
20260503021915 46 327 2.0 2.0 0.00 0.00 0.00 59 1016.3
20260503021412 46 29 3.0 4.0 0.00 0.00 0.00 60 1016.3
20260503020910 46 57 2.0 3.0 0.00 0.00 0.00 59 1016.2
20260503020408 46 324 1.0 3.0 0.00 0.00 0.00 58 1016.3
20260503015904 47 18 2.0 4.0 0.00 0.00 0.00 57 1016.4
20260503015401 47 351 3.0 6.0 0.00 0.00 0.00 57 1016.1
20260503014856 47 20 4.0 7.0 0.00 0.00 0.00 57 1016.3
20260503014354 47 72 5.0 9.0 0.00 0.00 0.00 57 1016.0
20260503013852 47 28 3.0 3.0 0.00 0.00 0.00 58 1016.0
20260503013348 47 327 3.0 7.0 0.00 0.00 0.00 56 1015.9
20260503012845 47 28 2.0 4.0 0.00 0.00 0.00 56 1016.0
20260503012343 48 51 8.0 9.0 0.00 0.00 0.00 54 1015.9
20260503011840 49 34 2.0 7.0 0.00 0.00 0.00 51 1015.6
20260503011337 49 49 3.0 6.0 0.00 0.00 0.00 50 1015.6
20260503010833 49 338 2.0 8.0 0.00 0.00 0.00 50 1015.5
20260503010330 49 41 0.0 4.0 0.00 0.00 0.00 50 1015.4
20260503005826 49 349 4.0 6.0 0.00 0.00 0.00 50 1015.4
20260503005324 49 74 3.0 4.0 0.00 0.00 0.00 51 1015.3
20260503004820 49 47 2.0 3.0 0.00 0.00 0.00 50 1015.0
20260503004318 49 11 2.0 3.0 0.00 0.00 0.00 49 1015.2
20260503003815 50 331 4.0 9.0 0.00 0.00 0.00 49 1015.0
20260503003312 50 341 4.0 7.0 0.00 0.00 0.00 48 1014.9
20260503002809 50 355 4.0 7.0 0.00 0.00 0.00 49 1015.1
20260503002306 50 314 4.0 7.0 0.00 0.00 0.00 48 1014.9
20260503001802 50 50 2.0 2.0 0.00 0.00 0.00 48 1014.7
20260503001259 50 70 3.0 6.0 0.00 0.00 0.00 48 1014.9
20260503000757 50 19 4.0 6.0 0.00 0.00 0.00 47 1014.8
20260503000254 51 343 2.0 4.0 0.00 0.00 0.00 49 1014.6
20260502235751 50 350 3.0 4.0 0.00 0.00 0.00 48 1014.6
20260502235249 51 51 2.0 4.0 0.00 0.00 0.00 48 1014.4
20260502234745 51 10 3.0 4.0 0.00 0.00 0.00 48 1014.2
20260502234242 51 72 2.0 7.0 0.00 0.00 0.00 47 1014.4
20260502233738 51 60 4.0 7.0 0.00 0.00 0.00 47 1014.3
20260502233235 51 57 4.0 4.0 0.00 0.00 0.00 47 1014.2
20260502232731 52 17 2.0 4.0 0.00 0.00 0.00 44 1014.0
20260502232228 52 16 4.0 7.0 0.00 0.00 0.00 44 1014.1
20260502231725 52 60 2.0 4.0 0.00 0.00 0.00 44 1013.9
20260502231222 52 40 2.0 4.0 0.00 0.00 0.00 44 1013.9
20260502230721 52 346 2.0 2.0 0.00 0.00 0.00 43 1013.9
20260502230218 53 48 3.0 7.0 0.00 0.00 0.00 44 1014.0
20260502225714 53 298 2.0 7.0 0.00 0.00 0.00 41 1014.0
20260502225211 53 266 4.0 6.0 0.00 0.00 0.00 42 1013.9
20260502224707 53 339 1.0 2.0 0.00 0.00 0.00 41 1013.9
20260502224204 53 66 1.0 4.0 0.00 0.00 0.00 42 1013.9
20260502223702 53 43 5.0 11.0 0.00 0.00 0.00 40 1013.9
20260502223200 53 311 0.0 2.0 0.00 0.00 0.00 41 1013.8
20260502222657 54 173 3.0 3.0 0.00 0.00 0.00 44 1013.7
20260502222154 54 74 0.0 2.0 0.00 0.00 0.00 40 1013.7
20260502221649 54 8 2.0 2.0 0.00 0.00 0.00 38 1013.7
20260502221147 54 93 0.0 2.0 0.00 0.00 0.00 39 1013.7
20260502220643 54 1 2.0 4.0 0.00 0.00 0.00 39 1013.6
20260502220139 53 309 1.0 4.0 0.00 0.00 0.00 42 1013.4
20260502215637 54 8 6.0 8.0 0.00 0.00 0.00 39 1013.6
20260502215133 54 270 2.0 3.0 0.00 0.00 0.00 39 1013.6
20260502214630 54 262 4.0 4.0 0.00 0.00 0.00 41 1013.6
20260502214122 54 21 1.0 6.0 0.00 0.00 0.00 41 1013.6
20260502213620 54 358 2.0 10.0 0.00 0.00 0.00 38 1013.4
20260502213117 54 254 3.0 7.0 0.00 0.00 0.00 42 1013.8
20260502212616 54 112 3.0 7.0 0.00 0.00 0.00 38 1013.5
20260502212113 54 2 7.0 10.0 0.00 0.00 0.00 38 1013.6
20260502211608 55 293 2.0 4.0 0.00 0.00 0.00 40 1013.6
20260502211105 55 274 7.0 10.0 0.00 0.00 0.00 37 1013.6
20260502210602 54 311 4.0 6.0 0.00 0.00 0.00 39 1013.5
20260502210059 55 260 5.0 10.0 0.00 0.00 0.00 39 1013.7
20260502205555 54 273 1.0 3.0 0.00 0.00 0.00 44 1013.7
20260502205053 55 232 7.0 10.0 0.00 0.00 0.00 42 1013.8
20260502204549 55 316 5.0 8.0 0.00 0.00 0.00 40 1013.6
20260502204048 54 293 6.0 7.0 0.00 0.00 0.00 42 1013.5
20260502203544 54 250 8.0 11.0 0.00 0.00 0.00 39 1013.6
20260502203041 55 250 5.0 14.0 0.00 0.00 0.00 40 1013.5
20260502202537 56 291 2.0 6.0 0.00 0.00 0.00 48 1013.6
20260502202036 55 329 4.0 10.0 0.00 0.00 0.00 41 1013.6
20260502201531 54 259 5.0 8.0 0.00 0.00 0.00 43 1013.7
20260502201028 54 275 2.0 15.0 0.00 0.00 0.00 40 1013.8
20260502200524 55 7 6.0 15.0 0.00 0.00 0.00 40 1013.7
20260502200022 55 38 4.0 14.0 0.00 0.00 0.00 40 1013.7
20260502195519 55 296 6.0 8.0 0.00 0.00 0.00 47 1013.7
20260502195015 54 283 5.0 8.0 0.00 0.00 0.00 40 1013.7
20260502194507 54 286 4.0 9.0 0.00 0.00 0.00 44 1013.8
20260502194003 54 318 5.0 8.0 0.00 0.00 0.00 42 1014.0
20260502193501 53 290 5.0 7.0 0.00 0.00 0.00 44 1014.2
20260502192956 54 284 5.0 7.0 0.00 0.00 0.00 42 1014.0
20260502192453 54 349 0.0 6.0 0.00 0.00 0.00 43 1014.0
20260502191949 55 99 2.0 6.0 0.00 0.00 0.00 42 1014.1
20260502191447 54 28 1.0 6.0 0.00 0.00 0.00 47 1014.2
20260502190944 53 3 2.0 7.0 0.00 0.00 0.00 41 1014.2
20260502190441 54 325 2.0 8.0 0.00 0.00 0.00 41 1014.4
20260502185938 55 291 7.0 10.0 0.00 0.00 0.00 46 1014.6
20260502185434 54 168 0.0 1.0 0.00 0.00 0.00 43 1014.5
20260502184931 54 54 1.0 3.0 0.00 0.00 0.00 42 1014.6
20260502184426 54 3 2.0 6.0 0.00 0.00 0.00 43 1014.8
20260502183922 54 254 1.0 4.0 0.00 0.00 0.00 45 1014.7
20260502183419 54 91 4.0 4.0 0.00 0.00 0.00 43 1014.8
20260502182914 53 335 2.0 8.0 0.00 0.00 0.00 44 1014.8
20260502182410 53 357 4.0 6.0 0.00 0.00 0.00 45 1014.8
20260502181906 53 340 4.0 9.0 0.00 0.00 0.00 46 1014.9
20260502181405 54 65 5.0 8.0 0.00 0.00 0.00 44 1015.1
20260502180903 55 84 2.0 3.0 0.00 0.00 0.00 40 1014.9
20260502180359 55 264 5.0 7.0 0.00 0.00 0.00 46 1015.0